Weather in Kardzhin

Russia / Republic of North Ossetia — Alania     43°15′57″N   44°17′31″E
temp.,
°C
wind,
m/s
gust,
m/s
humid.,
%
clouds,
%
prec.,
mm/h
press.,
hPa
HPBL,
m
27 september, mon
mon2700:00+11s22619 0.0 101815
03:00+10sse12600 0.0 101614
06:00+11sse225867 0.0 101630
09:00+16nne34521 0.0 1015495
12:00+18nne435596 0.0 10151509
15:00+16n5674100 0.1 1015868
18:00+13nw1279100 0.8 101778
21:00+12ssw1182100 0.9 101842
28 september, tue
tue2800:00+12ssw1183100 0.1 101743
03:00+12sw0083100 0.1 101715
06:00+11sse118392 0.0 101713
09:00+13ene127187 0.0 1017560
12:00+15ene346245 0.0 10171040
15:00+14ese3467100 0.0 1018283
18:00+13ssw1172100 0.0 101920
21:00+12nw2378100 0.1 1021158
29 september, wed
wed2900:00+10nw2284100 0.0 1022233
03:00+10nw1186100 0.0 1022141
06:00+10nw0085100 0.0 102265
09:00+12ene237499 0.0 1022624
12:00+13e3367100 0.0 1022982
15:00+13e3471100 0.1 1022804
18:00+12ene3675100 0.0 1022503
21:00+10ene3784100 0.4 1022592
30 september, thu
thu3000:00+9nne2494100 2.4 1022396
03:00+8ne4892100 8.4 1024545
06:00+8ene2493100 3.4 1025368
09:00+7ne3589100 8.4 1027420
12:00+7ne2489100 2.4 1028538
15:00+7ene3486100 2.9 1028614
18:00+7e1388100 0.3 1029384
21:00+7e1389100 0.8 1030512
1 october, fri
fri100:00+7ene1288100 0.1 1029327
03:00+7ene0189100 0.3 102996
06:00+7nne0090100 0.2 103063
09:00+8nne1289100 0.4 1030304
12:00+8e3686100 0.4 1031620
15:00+8e2585100 0.6 1030550
18:00+8ne1189100 0.2 103148
21:00+8nne0190100 0.3 103160